Current weather by "City, St" or "zip code"  
 
Advertise Here

Current Conditions: Fort Rucker, Lowe Army Heliport, AL

Overcast


66.0 F

Last Updated on Feb 28 2021, 5:58 am CST
Humidity: 96%
Wind Speed: N 0.0 mph
Barometer 30.15 in
Dewpoint: 65.1 F
Visibility: 10.00 mi
Precip: --
Heat Index: NA
Wind Chill: NA
Current conditions at:

Fort Rucker, Lowe Army Heliport, AL (KLOR)

Lat: 31.35889 Lon: 85.74833

Local Radar Image active severe weather and emergency alerts image image weather storm and storm spotter reports image weather observation monitoring service image
Local
Radar
Active
Alerts
Storm Reports Obs
Monitoring

Sign-up For Email & Text Message Weather Alert Notification Services


Advertise Here

Observation History for Fort Rucker, Lowe Army Heliport, AL


Time Wind
(mph)
Vis
(mi)
Weather Precip (in) Temperature (F) Relative
Humidity
Wind
Chill
(F)
Heat
Index
(F)
Pressure
Air Dwpt altimeter
(in)
sea level
(mb)
Rmks
5:58 am CST N 0.0 10.00 Overcast -- 66.0 65.1 96% NA NA 30.15 1019.1
4:58 am CST N 0.0 10.00 Overcast -- 66.0 64.6 95% NA NA 30.13 1018.4
3:58 am CST S 4.6 10.00 Overcast -- 68.0 66.2 94% NA NA 30.12 1018.1
2:58 am CST N 0.0 10.00 Overcast -- 67.0 65.1 94% NA NA 30.12 1018.1
1:58 am CST N 0.0 10.00 Overcast -- 66.0 64.8 95% NA NA 30.13 1018.4
12:58 am CST S 3.5 9.00 Mostly Cloudy -- 67.0 64.4 93% NA NA 30.13 1018.4
11:58 pm CST S 4.6 10.00 Overcast -- 66.0 63.3 91% NA NA 30.14 1018.8
10:58 pm CST N 0.0 10.00 Overcast -- 65.0 62.4 92% NA NA 30.16 1019.5
9:58 pm CST N 0.0 10.00 Mostly Cloudy -- 64.0 60.8 88% NA NA 30.16 1019.5
8:58 pm CST N 0.0 10.00 Fair -- 63.0 61.0 92% NA NA 30.16 1019.5
7:58 pm CST N 0.0 10.00 A Few Clouds -- 66.0 60.8 83% NA NA 30.15 1019.2
6:58 pm CST N 0.0 10.00 A Few Clouds -- 70.0 61.3 75% NA NA 30.14 1018.9
5:58 pm CST N 0.0 8.00 A Few Clouds -- 72.0 61.7 69% NA NA 30.13 1018.5
4:58 pm CST S 5.8 8.00 Mostly Cloudy -- 77.0 63.7 64% NA NA 30.11 1017.8
3:58 pm CST SE 4.6 9.00 A Few Clouds -- 78.0 65.5 66% NA NA 30.11 1017.8
2:58 pm CST S 5.8 10.00 Partly Cloudy -- 78.0 65.5 66% NA NA 30.11 1017.8
1:58 pm CST S 5.8 10.00 Mostly Cloudy -- 77.0 65.7 69% NA NA 30.13 1018.5
12:58 pm CST SE 4.6 10.00 Mostly Cloudy -- 77.0 65.7 67% NA NA 30.15 1019.2
11:58 am CST SE 5.8 10.00 Overcast -- 74.0 65.7 76% NA NA 30.17 1019.8
10:58 am CST SE 4.6 10.00 Overcast -- 71.0 65.7 84% NA NA 30.19 1020.5
9:58 am CST N 0.0 7.00 Overcast -- 67.0 65.1 94% NA NA 30.19 1020.5
8:58 am CST N 0.0 4.00 Fog/Mist -- 64.0 63.1 98% NA NA 30.18 1020.2
7:58 am CST N 0.0 7.00 Overcast -- 61.0 60.4 98% NA NA 30.17 1019.9
6:58 am CST N 0.0 6.00 Fog/Mist -- 60.0 59.0 98% NA NA 30.15 1019.2

Regional Weather Observation


Enterprise Municipal Airport, AL (KEDN)

Overcast
65.0 F

Troy, Troy Municipal Airport, AL (KTOI)

Overcast
68.0 F

Fort Rucker, Lowe Army Heliport, AL (KLOR)

Overcast
66.0 F

Cairns Army Air Field / Ozark, AL (KOZR)

Overcast
67.0 F

Hanchey AHP / Ozark, AL (KHEY)

Overcast
66.0 F

Dothan, Dothan Regional Airport, AL (KDHN)

Overcast
68.0 F
Advertise Here

Advertise Here